Weather History for Kendall, FL

Change the Weather History Date:

Sunday, November 20, 2011

  Actual Average Record
Temperature  
Mean Temperature 78 °F -  
Max Temperature 82 °F 82 °F 86 °F (1993)
Min Temperature 73 °F 64 °F 48 °F (2006)
Cooling Degree Days 12    
Growing Degree Days 28 (Base 50)    
Moisture  
Dew Point 71 °F    
Average Humidity 82    
Maximum Humidity 94    
Minimum Humidity 69    
Precipitation  
Precipitation 0.06 in - - ()
Sea Level Pressure  
Sea Level Pressure 30.16 in    
Wind  
Wind Speed 11 mph (ENE)    
Max Wind Speed 22 mph    
Max Gust Speed 25 mph    
Visibility 10 miles    
Events Rain    
Averages and records for this station are not official NWS values.
T = Trace of Precipitation, MM = Missing Value Source: NWS Daily Summary

Daily Weather History Graph

Daily Weather History Graph

Search for Another Location

Airport:

Trip Planner

Search our weather history database for the weather conditions in past years. The results will help you decide how hot, cold, wet, or windy it might be!

Date:

Astronomy

Nov. 20, 2011 Rise Set
Actual Time 6:42 AM EST 5:31 PM EST
Civil Twilight 6:18 AM EST 5:56 PM EST
Nautical Twilight 5:50 AM EST 6:24 PM EST
Astronomical Twilight 5:22 AM EST 6:51 PM EST
Moon 1:38 AM EST (11/20) 1:55 PM EST (11/20)
Length of Visible Light 11h 37m
Length of Day
10h 48m
Waning Crescent, 27% of the Moon is Illuminated
Nov 20
Waning Crescent
Nov 25
New
Dec 2
First Quarter
Dec 10
Full
Dec 17
Last Quarter

Hourly Weather History & Observations

Time (EST) Temp. Heat Index Dew Point Humidity Pressure Visibility Wind Dir Wind Speed Gust Speed Precip Events Conditions
12:53 AM 73.0 °F - 68.0 °F 84% 30.15 in 10.0 mi East 6.9 mph - N/A   Clear
1:53 AM 73.9 °F - 69.1 °F 85% 30.14 in 10.0 mi ENE 5.8 mph - N/A   Scattered Clouds
2:53 AM 73.9 °F - 69.1 °F 85% 30.13 in 10.0 mi ENE 6.9 mph - N/A   Scattered Clouds
3:53 AM 73.9 °F - 69.1 °F 85% 30.13 in 10.0 mi East 9.2 mph - N/A   Partly Cloudy
4:53 AM 75.2 °F - 69.8 °F 83% 30.13 in 10.0 mi East 13.8 mph - N/A   Scattered Clouds
5:53 AM 75.0 °F - 71.1 °F 87% 30.14 in 10.0 mi ENE 9.2 mph - N/A   Mostly Cloudy
6:53 AM 73.4 °F - 71.6 °F 94% 30.16 in 7.0 mi ENE 9.2 mph - N/A Rain Light Rain
7:53 AM 73.9 °F - 72.0 °F 93% 30.18 in 10.0 mi ENE 6.9 mph - 0.00 in Rain Light Rain
8:53 AM 78.1 °F - 73.0 °F 84% 30.19 in 10.0 mi ENE 12.7 mph - 0.00 in Rain Light Rain
9:23 AM 78.8 °F - 71.6 °F 78% 30.21 in 10.0 mi East 15.0 mph 25.3 mph 0.00 in Rain Light Rain
9:53 AM 80.1 °F 83.6 °F 71.1 °F 74% 30.20 in 10.0 mi East 18.4 mph - 0.00 in Rain Light Rain
10:20 AM 80.6 °F 84.6 °F 71.6 °F 74% 30.20 in 10.0 mi East 19.6 mph 23.0 mph 0.00 in Rain Light Rain
10:53 AM 81.0 °F 84.4 °F 70.0 °F 69% 30.20 in 10.0 mi East 20.7 mph 25.3 mph 0.00 in Rain Light Rain
11:12 AM 80.6 °F 83.9 °F 69.8 °F 70% 30.19 in 10.0 mi East 21.9 mph - 0.00 in Rain Light Rain
11:53 AM 82.0 °F 86.3 °F 71.1 °F 69% 30.18 in 10.0 mi East 17.3 mph - 0.00 in Rain Light Rain
12:53 PM 80.6 °F 83.9 °F 69.8 °F 70% 30.15 in 10.0 mi East 15.0 mph - N/A Rain Light Rain
1:00 PM 82.4 °F 87.2 °F 71.6 °F 70% 30.15 in 10.0 mi East 15.0 mph - 0.00 in Rain Light Rain
1:30 PM 80.6 °F 84.6 °F 71.6 °F 74% 30.14 in 10.0 mi East 13.8 mph - 0.00 in Rain Light Rain
1:48 PM 80.6 °F 83.9 °F 69.8 °F 70% 30.14 in 10.0 mi East 19.6 mph - 0.00 in Rain Light Rain
1:53 PM 80.1 °F 83.2 °F 70.0 °F 71% 30.14 in 10.0 mi East 15.0 mph - 0.00 in Rain Light Rain
2:53 PM 81.0 °F 84.9 °F 71.1 °F 72% 30.13 in 10.0 mi East 16.1 mph - 0.00 in   Mostly Cloudy
3:04 PM 78.8 °F - 71.6 °F 78% 30.13 in 10.0 mi East 15.0 mph - N/A   Overcast
3:17 PM 80.6 °F 84.6 °F 71.6 °F 74% 30.13 in 10.0 mi East 10.4 mph - N/A   Overcast
3:53 PM 77.0 °F - 73.0 °F 88% 30.14 in 10.0 mi East 9.2 mph - 0.03 in   Mostly Cloudy
4:38 PM 75.2 °F - 71.6 °F 89% 30.15 in 5.0 mi ENE 10.4 mph - 0.02 in Rain Rain
4:53 PM 75.9 °F - 73.0 °F 91% 30.14 in 10.0 mi East 10.4 mph - 0.03 in   Overcast
5:53 PM 75.9 °F - 72.0 °F 87% 30.16 in 10.0 mi ENE 6.9 mph - N/A   Mostly Cloudy
6:53 PM 73.9 °F - 72.0 °F 93% 30.17 in 10.0 mi NE 4.6 mph - N/A   Partly Cloudy
7:53 PM 73.9 °F - 72.0 °F 93% 30.18 in 10.0 mi NE 4.6 mph - N/A   Scattered Clouds
8:53 PM 73.4 °F - 71.6 °F 94% 30.18 in 10.0 mi NE 3.5 mph - N/A   Scattered Clouds
9:53 PM 75.0 °F - 72.0 °F 90% 30.18 in 10.0 mi East 9.2 mph - N/A   Clear
10:53 PM 75.2 °F - 71.6 °F 89% 30.18 in 10.0 mi East 6.9 mph - N/A   Partly Cloudy
11:53 PM 73.9 °F - 71.1 °F 91% 30.17 in 10.0 mi ENE 8.1 mph - N/A   Clear